Find Starlink 37123

NORAD ID: 68275 Int'l Des: 2026-055 Owner: SPXS Country: US Constellation: starlink operational
LEOCIRCULAR

Live Position

Loading 3D Globe...

About Starlink 37123

Description loading...

Upcoming Passes

Passes for default location (London). Set your location on the main map for personalized predictions.

Altitude History

Loading altitude history...

Two-Line Element Set

1 68275U 26055P 26124.51374139 .00062648 00000-0 14365-2 0 9991
2 68275 53.1604 60.2670 0000965 77.1830 282.9284 15.42178176 8472
Epoch: May 4, 2026 • Age: 18 hours

Current Status

Altitude 444.1 km
Velocity 7.65 km/s
Sub-Earth Point 47.59°N, 129.86°W
Launch Date Mar 19, 2026
Age 0.1 years
Type internet

Technical Details

Classification Payload
Mass 575.00 kg
Dry Mass 530.00 kg
Total Mass 575.00 kg
Length 0.30 m
Diameter 4.10 m
Span 29.00 m
Shape Box + pan
Manufacturer SPXS
Bus Type Starlink V2MO
Phase Status In Orbit
Owner/State SPXS/US

Most Searched